EW8655 Weather Reports


Display with metric or nautical units.
time (UTC)temp
F
wind
direction
speed
MPH
gust
MPH
rain 1hr
in
rain 24hr
in
rain mn
in
humidity
%
barometer
mb
20260509162507 53 63 5.0 7.0 0.00 0.00 0.00 84 1005.1
20260509162007 52 62 6.0 7.0 0.00 0.00 0.00 84 1005.1
20260509161506 52 60 7.0 12.0 0.00 0.00 0.00 84 1005.1
20260509161007 52 65 9.0 12.0 0.00 0.00 0.00 84 1005.1
20260509160506 52 70 9.0 12.0 0.00 0.00 0.00 84 1005.1
20260509160006 52 70 7.0 9.0 0.00 0.00 0.00 84 1005.1
20260509155506 52 61 7.0 9.0 0.00 0.00 0.00 83 1005.1
20260509154505 52 64 9.0 12.0 0.00 0.00 0.00 83 1005.1
20260509154006 52 70 8.0 12.0 0.00 0.00 0.00 83 1005.1
20260509153006 52 75 7.0 9.0 0.00 0.00 0.00 83 1005.1
20260509152006 52 65 5.0 9.0 0.00 0.00 0.00 82 1005.1
20260509151506 52 98 5.0 9.0 0.00 0.00 0.00 82 1005.1
20260509151007 52 73 7.0 9.0 0.00 0.00 0.00 81 1005.1
20260509150006 52 70 7.0 12.0 0.00 0.00 0.00 81 1005.1
20260509145505 52 78 7.0 12.0 0.00 0.00 0.00 80 1005.1
20260509145006 52 77 6.0 9.0 0.00 0.00 0.00 80 1005.1
20260509144505 52 67 5.0 9.0 0.00 0.00 0.00 79 1005.2
20260509144007 52 77 5.0 9.0 0.00 0.00 0.00 79 1005.1
20260509143007 53 71 7.0 9.0 0.00 0.00 0.00 77 1005.1
20260509142506 54 69 4.0 9.0 0.00 0.00 0.00 75 1005.1
20260509142007 57 119 2.0 5.0 0.00 0.00 0.00 75 1006.1
20260509141506 57 97 2.0 7.0 0.00 0.00 0.00 74 1005.4
20260509141006 58 187 5.0 7.0 0.00 0.00 0.00 74 1006.1
20260509140507 58 162 5.0 7.0 0.00 0.00 0.00 76 1006.1
20260509140006 57 179 2.0 5.0 0.00 0.00 0.00 76 1006.1
20260509135506 55 107 2.0 7.0 0.00 0.00 0.00 75 1006.1
20260509135006 57 105 2.0 7.0 0.00 0.00 0.00 75 1006.1
20260509134505 57 204 5.0 9.0 0.00 0.00 0.00 76 1006.1
20260509134007 56 165 5.0 9.0 0.00 0.00 0.00 76 1006.1
20260509133506 55 171 7.0 9.0 0.00 0.00 0.00 77 1006.1
20260509133006 55 172 2.0 9.0 0.00 0.00 0.00 78 1006.1
20260509132505 54 140 1.0 5.0 0.00 0.00 0.00 78 1006.1
20260509132006 52 119 2.0 5.0 0.00 0.00 0.00 78 1006.1
20260509131506 52 125 5.0 5.0 0.00 0.00 0.00 78 1006.1
20260509131006 51 107 2.0 5.0 0.00 0.00 0.00 78 1006.1
20260509130506 51 117 2.0 5.0 0.00 0.00 0.00 77 1006.1
20260509130005 52 98 2.0 5.0 0.00 0.00 0.00 77 1006.1
20260509125006 51 107 5.0 5.0 0.00 0.00 0.00 76 1006.6
20260509124506 51 94 5.0 5.0 0.00 0.00 0.00 76 1007.1
20260509124006 51 90 5.0 5.0 0.00 0.00 0.00 74 1007.1
20260509123506 52 94 0.0 5.0 0.00 0.00 0.00 73 1007.1
20260509123006 52 140 2.0 5.0 0.00 0.00 0.00 73 1007.1
20260509122505 52 170 0.0 2.0 0.00 0.00 0.00 73 1007.1
20260509122007 52 155 0.0 5.0 0.00 0.00 0.00 73 1007.1
20260509121506 52 148 2.0 5.0 0.00 0.00 0.00 73 1007.1
20260509120506 51 142 2.0 5.0 0.00 0.00 0.00 73 1007.1
20260509120005 50 139 0.0 5.0 0.00 0.00 0.00 73 1007.1
20260509115505 50 139 0.0 2.0 0.00 0.00 0.00 73 1007.1
20260509115006 50 139 0.0 2.0 0.00 0.00 0.00 73 1007.1
20260509114505 50 136 0.0 2.0 0.00 0.00 0.00 73 1007.1
20260509114007 49 152 0.0 5.0 0.00 0.00 0.00 72 1007.1
20260509113006 49 168 5.0 5.0 0.00 0.00 0.00 72 1007.3
20260509112506 49 175 2.0 5.0 0.00 0.00 0.00 72 1007.6
20260509112006 49 174 0.0 5.0 0.00 0.00 0.00 72 1007.1
20260509111505 48 162 1.0 5.0 0.00 0.00 0.00 72 1007.6
20260509110506 48 178 5.0 5.0 0.00 0.00 0.00 72 1007.6
20260509110005 48 181 5.0 5.0 0.00 0.00 0.00 72 1007.1
20260509105505 48 188 5.0 5.0 0.00 0.00 0.00 72 1007.1
20260509105008 48 182 5.0 5.0 0.00 0.00 0.00 72 1007.1
20260509104507 47 189 5.0 7.0 0.00 0.00 0.00 72 1007.1
20260509104009 47 184 5.0 7.0 0.00 0.00 0.00 72 1007.1
20260509103009 47 182 5.0 5.0 0.00 0.00 0.00 72 1007.1
20260509102507 47 175 5.0 5.0 0.00 0.00 0.00 72 1007.1
20260509102009 47 169 5.0 5.0 0.00 0.00 0.00 71 1007.1
20260509101507 47 162 5.0 5.0 0.00 0.00 0.00 71 1007.1
20260509101008 47 165 5.0 5.0 0.00 0.00 0.00 71 1007.1
20260509100507 47 169 3.0 5.0 0.00 0.00 0.00 71 1007.1
20260509100007 46 166 2.0 5.0 0.00 0.00 0.00 71 1007.1
20260509095008 46 162 5.0 5.0 0.00 0.00 0.00 71 1007.6
20260509094507 46 174 5.0 5.0 0.00 0.00 0.00 71 1007.1
20260509094009 46 189 5.0 7.0 0.00 0.00 0.00 71 1007.5
20260509093508 46 172 5.0 7.0 0.00 0.00 0.00 71 1007.1
20260509093009 46 172 5.0 5.0 0.00 0.00 0.00 71 1007.6
20260509092508 46 171 5.0 7.0 0.00 0.00 0.00 71 1007.2
20260509092009 46 168 5.0 7.0 0.00 0.00 0.00 71 1007.1
20260509090508 46 176 3.0 5.0 0.00 0.00 0.00 71 1008.1
20260509090007 46 157 5.0 5.0 0.00 0.00 0.00 71 1008.1
20260509085507 46 156 5.0 5.0 0.00 0.00 0.00 71 1008.1
20260509084507 46 171 4.0 5.0 0.00 0.00 0.00 71 1008.1
20260509083008 46 158 5.0 5.0 0.00 0.00 0.00 70 1008.1
20260509082508 46 163 5.0 5.0 0.00 0.00 0.00 70 1008.1
20260509081507 46 162 5.0 5.0 0.00 0.00 0.00 70 1008.1
20260509080507 46 159 5.0 5.0 0.00 0.00 0.00 69 1008.1
20260509080007 46 162 2.0 5.0 0.00 0.00 0.00 69 1008.1
20260509075507 46 157 3.0 5.0 0.00 0.00 0.00 69 1008.1
20260509075008 46 160 5.0 5.0 0.00 0.00 0.00 69 1008.1
20260509074507 46 153 2.0 5.0 0.00 0.00 0.00 69 1008.1
20260509074008 47 158 2.0 5.0 0.00 0.00 0.00 69 1008.1
20260509073507 47 148 2.0 5.0 0.00 0.00 0.00 69 1008.1
20260509073008 47 147 5.0 7.0 0.00 0.00 0.00 69 1008.1
20260509072009 47 172 5.0 7.0 0.00 0.00 0.00 69 1008.1
20260509071009 47 169 5.0 7.0 0.00 0.00 0.00 69 1008.1
20260509070006 47 184 7.0 7.0 0.00 0.00 0.00 69 1008.1
20260509065507 47 172 5.0 7.0 0.00 0.00 0.00 69 1008.1
20260509065008 47 177 5.0 7.0 0.00 0.00 0.00 69 1008.1
20260509064507 47 173 5.0 7.0 0.00 0.00 0.00 68 1008.1
20260509064008 47 182 5.0 7.0 0.00 0.00 0.00 68 1008.1
20260509063508 47 181 5.0 7.0 0.00 0.00 0.00 68 1008.1
20260509063008 47 179 5.0 7.0 0.00 0.00 0.00 68 1008.1
20260509062506 48 184 5.0 7.0 0.00 0.00 0.00 68 1008.1
20260509062008 48 180 5.0 7.0 0.00 0.00 0.00 68 1008.1
20260509061507 48 174 5.0 9.0 0.00 0.00 0.00 68 1008.1
20260509061008 48 174 7.0 9.0 0.00 0.00 0.00 68 1008.1
20260509060507 48 177 7.0 9.0 0.00 0.00 0.00 68 1009.0
20260509060006 48 183 7.0 9.0 0.00 0.00 0.00 68 1009.1
20260509055507 48 177 7.0 9.0 0.00 0.00 0.00 68 1008.6
20260509054507 48 177 5.0 7.0 0.00 0.00 0.00 69 1009.1
20260509054008 48 174 5.0 7.0 0.00 0.00 0.00 69 1009.1
20260509053508 48 181 5.0 7.0 0.00 0.00 0.00 69 1009.1
20260509053008 48 181 5.0 7.0 0.00 0.00 0.00 68 1009.1
20260509052507 49 188 5.0 7.0 0.00 0.00 0.00 69 1009.1
20260509052008 49 188 5.0 7.0 0.00 0.00 0.00 69 1009.1
20260509051008 49 191 5.0 7.0 0.00 0.00 0.00 69 1009.1
20260509050507 49 193 5.0 7.0 0.00 0.00 0.00 69 1009.1
20260509045008 48 177 2.0 5.0 0.00 0.00 0.00 70 1009.1
20260509044507 48 180 5.0 5.0 0.00 0.00 0.00 70 1009.1
20260509043507 49 178 5.0 7.0 0.00 0.00 0.00 70 1009.1
20260509042506 49 161 5.0 5.0 0.00 0.00 0.00 71 1009.1
20260509042007 49 162 3.0 5.0 0.00 0.00 0.00 71 1009.1
20260509041507 49 160 2.0 7.0 0.00 0.00 0.00 71 1009.6
20260509040007 49 161 5.0 5.0 0.00 0.00 0.00 70 1010.1
20260509035008 49 165 5.0 5.0 0.00 0.00 0.00 71 1010.1
20260509034507 49 156 2.0 5.0 0.00 0.00 0.00 71 1010.1
20260509033508 49 162 5.0 5.0 0.00 0.00 0.00 71 1010.1
20260509033008 49 158 5.0 5.0 0.00 0.00 0.00 71 1010.1
20260509032506 49 161 4.0 5.0 0.00 0.00 0.00 71 1010.1
20260509032008 49 151 5.0 5.0 0.00 0.00 0.00 71 1010.1
20260509031507 49 160 5.0 5.0 0.00 0.00 0.00 71 1010.1
20260509030507 49 161 5.0 5.0 0.00 0.00 0.00 71 1010.1
20260509030006 48 161 2.0 5.0 0.00 0.00 0.00 71 1010.1
20260509025507 48 158 2.0 5.0 0.00 0.00 0.00 71 1010.1
20260509024506 49 144 2.0 5.0 0.00 0.00 0.00 70 1010.1
20260509024008 49 147 2.0 5.0 0.00 0.00 0.00 69 1010.1
20260509023507 49 139 2.0 5.0 0.00 0.00 0.00 69 1010.1
20260509022506 49 140 2.0 5.0 0.00 0.00 0.00 69 1010.1
20260509022007 49 139 2.0 5.0 0.00 0.00 0.00 69 1010.1
20260509021507 49 138 0.0 2.0 0.00 0.00 0.00 69 1010.1
20260509020508 48 123 0.0 0.0 0.00 0.00 0.00 69 1010.1
20260509015008 49 130 0.0 2.0 0.00 0.00 0.00 70 1010.1
20260509014506 49 135 0.0 2.0 0.00 0.00 0.00 70 1010.1
20260509014008 49 117 0.0 2.0 0.00 0.00 0.00 71 1010.1
20260509013507 49 127 0.0 5.0 0.00 0.00 0.00 71 1010.1
20260509013008 49 129 1.0 5.0 0.00 0.00 0.00 73 1010.1
20260509012506 49 137 2.0 5.0 0.00 0.00 0.00 74 1010.1
20260509012007 48 130 0.0 2.0 0.00 0.00 0.00 75 1010.1
20260509011507 48 134 0.0 5.0 0.00 0.00 0.00 76 1010.1
20260509011008 48 137 2.0 5.0 0.00 0.00 0.00 76 1010.1
20260509010507 48 112 2.0 5.0 0.00 0.00 0.00 76 1009.1
20260509010007 49 109 2.0 5.0 0.00 0.00 0.00 75 1009.1
20260509005506 49 114 2.0 5.0 0.00 0.00 0.00 74 1009.1
20260509005007 49 117 0.0 2.0 0.00 0.00 0.00 74 1009.1
20260509004507 49 126 0.0 2.0 0.00 0.00 0.00 74 1009.1
20260509004007 49 119 0.0 2.0 0.00 0.00 0.00 74 1009.1
20260509003507 49 122 0.0 2.0 0.00 0.00 0.00 74 1009.1
20260509003008 49 137 0.0 2.0 0.00 0.00 0.00 74 1009.1
20260509002506 49 128 0.0 2.0 0.00 0.00 0.00 75 1009.1
20260509002007 49 133 0.0 5.0 0.00 0.00 0.00 76 1009.1
20260509001506 49 120 2.0 5.0 0.00 0.00 0.00 77 1009.1
20260509001008 49 121 2.0 5.0 0.00 0.00 0.00 77 1009.1
20260509000507 49 114 2.0 5.0 0.00 0.00 0.00 78 1009.1
20260509000006 49 125 2.0 5.0 0.00 0.00 0.00 78 1009.1
20260508235506 50 115 2.0 5.0 0.00 0.00 0.00 77 1009.1
20260508235007 50 120 2.0 5.0 0.00 0.00 0.00 77 1009.1
20260508234507 50 109 2.0 5.0 0.00 0.00 0.00 76 1009.1
20260508233507 49 112 0.0 2.0 0.00 0.00 0.00 76 1009.1
20260508233007 49 110 2.0 2.0 0.00 0.00 0.00 76 1009.1
20260508232507 49 118 2.0 5.0 0.00 0.00 0.00 76 1009.1
20260508232007 49 115 2.0 5.0 0.00 0.00 0.00 76 1009.1
20260508231507 49 114 2.0 5.0 0.00 0.00 0.00 76 1009.1
20260508231008 50 115 2.0 5.0 0.00 0.00 0.00 77 1009.1
20260508230006 50 121 2.0 7.0 0.00 0.00 0.00 77 1008.9
20260508225507 50 97 2.0 7.0 0.00 0.00 0.00 77 1009.1
20260508225008 50 117 2.0 7.0 0.00 0.00 0.00 77 1009.1
20260508224506 51 100 2.0 5.0 0.00 0.00 0.00 77 1009.1
20260508224007 50 104 2.0 5.0 0.00 0.00 0.00 78 1008.6
20260508223507 50 116 3.0 9.0 0.00 0.00 0.00 78 1009.1
20260508223007 49 101 5.0 9.0 0.00 0.00 0.00 79 1009.1
20260508222506 49 89 7.0 9.0 0.00 0.00 0.00 79 1008.1
20260508222007 49 95 5.0 9.0 0.00 0.00 0.00 79 1008.1
20260508221506 49 119 5.0 9.0 0.00 0.00 0.00 79 1009.1
20260508221007 50 120 3.0 7.0 0.00 0.00 0.00 79 1009.1
20260508220507 50 114 5.0 7.0 0.00 0.00 0.00 79 1009.1
20260508220006 49 124 5.0 7.0 0.00 0.00 0.00 79 1009.1
20260508215507 49 82 7.0 7.0 0.00 0.00 0.00 79 1009.1
20260508215007 49 71 5.0 7.0 0.00 0.00 0.00 78 1009.1
20260508214506 49 113 5.0 9.0 0.00 0.00 0.00 78 1009.1
20260508213506 49 91 5.0 9.0 0.00 0.00 0.00 78 1009.1
20260508213007 49 108 5.0 7.0 0.00 0.00 0.00 78 1009.1
20260508211507 49 97 5.0 7.0 0.00 0.00 0.00 77 1009.1
20260508211007 49 94 5.0 7.0 0.00 0.00 0.00 76 1009.1
20260508210507 49 64 5.0 7.0 0.00 0.00 0.00 76 1009.1
20260508210006 49 61 5.0 7.0 0.00 0.00 0.00 76 1009.1
20260508205506 49 62 5.0 7.0 0.00 0.00 0.00 75 1009.1
20260508205007 49 80 5.0 7.0 0.00 0.00 0.00 75 1009.1
20260508204507 49 74 5.0 7.0 0.00 0.00 0.00 74 1009.1
20260508204007 49 80 5.0 7.0 0.00 0.00 0.00 74 1009.1
20260508203507 49 94 5.0 7.0 0.00 0.00 0.00 74 1009.1
20260508202505 50 97 5.0 5.0 0.00 0.00 0.00 72 1009.1
20260508202007 49 96 5.0 5.0 0.00 0.00 0.00 72 1009.1
20260508201506 49 64 2.0 5.0 0.00 0.00 0.00 72 1009.6
20260508201007 49 56 5.0 5.0 0.00 0.00 0.00 73 1010.1
20260508195506 49 57 5.0 7.0 0.00 0.00 0.00 73 1010.1
20260508195006 49 70 5.0 7.0 0.00 0.00 0.00 74 1010.1
20260508194506 49 63 5.0 7.0 0.00 0.00 0.00 74 1010.1
20260508194007 48 54 5.0 7.0 0.00 0.00 0.00 75 1010.1
20260508193507 48 34 5.0 7.0 0.00 0.00 0.00 75 1010.1
20260508193007 48 51 5.0 7.0 0.00 0.00 0.00 75 1010.1
20260508191506 48 48 5.0 7.0 0.00 0.00 0.00 75 1010.1
20260508191007 48 27 5.0 9.0 0.00 0.00 0.00 75 1010.1
20260508190507 47 21 7.0 9.0 0.00 0.00 0.00 75 1010.1
20260508190005 47 18 7.0 7.0 0.00 0.00 0.00 76 1010.1
20260508185506 48 33 5.0 7.0 0.00 0.00 0.00 76 1010.1
20260508185007 47 44 5.0 7.0 0.00 0.00 0.00 76 1010.1
20260508184506 47 44 7.0 9.0 0.00 0.00 0.00 76 1010.1
20260508183506 47 49 7.0 9.0 0.00 0.00 0.00 76 1010.1
20260508183007 47 46 7.0 9.0 0.00 0.00 0.00 76 1010.1
20260508182506 47 45 7.0 9.0 0.00 0.00 0.00 76 1010.1
20260508182006 48 37 7.0 9.0 0.00 0.00 0.00 76 1010.1
20260508180506 48 48 7.0 9.0 0.00 0.00 0.00 77 1010.1
20260508180006 48 47 7.0 7.0 0.00 0.00 0.00 77 1010.1
20260508175505 48 40 7.0 7.0 0.00 0.00 0.00 77 1010.1
20260508175007 48 53 7.0 9.0 0.00 0.00 0.00 77 1010.1
20260508174505 48 45 6.0 9.0 0.00 0.00 0.00 77 1010.1
20260508174006 48 45 5.0 7.0 0.00 0.00 0.00 77 1010.1
20260508173506 48 42 5.0 7.0 0.00 0.00 0.00 76 1010.1
20260508173007 48 43 6.0 7.0 0.00 0.00 0.00 76 1010.1
20260508172506 49 44 3.0 12.0 0.00 0.00 0.00 76 1010.1
20260508172006 48 62 7.0 12.0 0.00 0.00 0.00 76 1010.1
20260508171505 49 50 5.0 9.0 0.00 0.00 0.00 76 1010.1
20260508171006 49 56 6.0 9.0 0.00 0.00 0.00 75 1010.1
20260508170506 50 23 2.0 9.0 0.00 0.00 0.00 74 1010.1
20260508170006 50 51 2.0 5.0 0.00 0.00 0.00 75 1010.1
20260508165506 50 55 2.0 5.0 0.00 0.00 0.00 74 1010.1
20260508165007 50 52 2.0 5.0 0.00 0.00 0.00 74 1010.2
20260508164006 50 39 3.0 5.0 0.00 0.00 0.00 73 1011.1
20260508163507 50 28 3.0 5.0 0.00 0.00 0.00 72 1011.1
20260508163006 52 66 0.0 5.0 0.00 0.00 0.00 71 1012.1